Vorticity
nan nan nan nan nan nan nan nan nan nan nan nan nan nan nan nan nan nan nan nan nan nan nan nan nan nan nan nan nan nan nan nan nan nan nan nan nan nan nan nan nan nan nan nan nan nan nan nan nan
nan 9 8 8 5 5 6 4 4 7 2 5 7 3 4 5 5 5 5 10 10 6 5 7 7 6 5 5 5 6 6 6 6 6 6 5 5 5 5 4 5 6 6 5 5 5 5 5 nan
nan 6 8 9 6 4 6 2 7 7 11 11 2 6 5 4 6 7 6 9 7 7 7 7 6 7 6 6 5 5 6 6 6 6 6 5 5 5 5 5 5 6 6 5 5 5 5 6 nan
nan 6 9 9 6 4 4 6 13 8 8 11 7 5 8 7 5 8 11 10 10 8 7 6 6 6 5 6 7 6 5 5 5 5 6 6 5 5 5 5 5 6 6 6 5 5 5 6 nan
nan 9 8 7 5 6 4 6 8 14 7 4 11 6 5 0 7 7 13 11 11 10 10 7 7 9 11 8 5 5 6 6 5 4 5 5 5 5 5 5 5 5 6 6 5 6 5 5 nan
nan 8 7 7 5 7 6 7 8 4 6 9 8 8 1 -0 3 8 8 7 8 8 8 6 8 12 11 10 12 11 8 5 5 6 6 5 5 5 5 5 5 5 5 5 6 5 5 5 nan
nan 9 10 5 4 7 6 8 9 5 5 5 7 7 -5 -2 4 7 5 4 4 5 8 7 4 5 11 12 9 10 9 8 10 7 5 5 6 6 5 6 6 6 5 5 5 5 5 5 nan
nan 7 7 7 8 4 5 10 7 4 9 7 9 9 3 -1 8 11 4 3 4 4 5 6 6 6 8 11 10 7 9 13 9 7 8 9 8 8 7 6 6 6 6 6 6 5 6 5 nan
nan 7 8 8 5 4 6 7 7 8 6 10 12 9 6 9 10 9 5 4 6 5 5 7 6 7 8 8 9 12 12 13 10 10 8 7 8 9 9 8 8 7 7 6 6 5 6 7 nan
nan 8 7 7 6 6 6 6 7 8 5 5 5 3 7 9 10 6 7 6 4 4 6 8 7 7 9 7 7 8 11 13 12 9 9 9 7 8 9 9 9 8 8 9 8 7 6 6 nan
nan 6 7 6 8 9 7 7 10 7 5 10 8 4 5 8 7 6 6 7 5 7 5 5 7 7 9 9 10 8 7 7 9 11 8 8 9 8 6 8 8 9 8 6 9 8 7 8 nan
nan 7 7 5 5 8 11 6 8 13 11 11 8 8 7 6 6 5 6 6 7 8 7 7 8 8 9 10 8 7 7 7 7 5 12 14 7 7 7 8 8 6 8 6 5 8 8 7 nan
nan 4 5 5 7 5 10 13 8 6 9 6 5 6 7 6 7 7 7 6 6 6 7 7 8 8 8 10 9 8 8 7 7 8 8 10 13 9 8 7 8 8 7 8 6 6 8 7 nan
nan 8 7 10 11 10 7 3 5 5 7 6 5 4 4 5 7 7 6 7 7 6 6 8 9 8 9 8 9 10 8 7 8 8 6 6 10 12 11 8 8 9 8 6 7 6 7 8 nan
nan 8 14 15 12 11 -1 -0 11 9 5 4 5 5 5 5 5 7 7 6 7 8 6 7 8 8 9 10 10 9 7 8 8 7 7 8 7 6 13 15 9 8 10 7 5 7 6 7 nan
nan 9 9 9 8 9 7 4 4 9 6 4 6 5 4 5 6 6 7 7 7 6 7 8 7 7 8 11 11 9 8 9 8 8 7 7 7 8 9 15 16 8 6 7 8 7 6 6 nan
nan 10 3 5 10 10 10 10 4 7 7 6 6 6 6 5 5 6 7 7 7 7 7 8 8 8 10 12 10 8 9 10 9 9 7 6 9 11 10 8 13 12 8 8 11 8 9 6 nan
nan 7 7 8 2 8 13 11 5 7 8 6 6 6 6 5 4 7 7 7 8 8 8 9 7 8 12 12 10 10 8 7 8 9 6 7 8 8 10 10 11 17 15 10 5 4 4 8 nan
nan 8 6 7 8 8 8 10 5 2 4 6 7 6 7 8 8 7 7 7 8 7 7 8 7 10 11 9 8 9 8 10 9 6 4 9 10 7 9 9 8 12 15 10 8 8 5 9 nan
nan 8 7 8 11 9 11 4 7 7 6 6 6 6 6 6 7 7 9 9 8 8 7 7 7 9 11 9 9 8 9 9 7 8 9 8 7 8 8 9 8 8 12 17 18 10 6 7 nan
nan 9 10 7 7 6 9 6 9 8 7 6 6 7 5 5 6 7 9 9 6 6 8 8 8 9 8 10 11 9 10 9 8 6 9 8 7 8 9 10 10 9 10 13 15 13 9 8 nan
nan 10 6 8 7 8 4 9 13 12 3 2 4 7 8 9 8 6 7 7 9 9 8 6 7 10 9 9 8 9 10 9 9 8 6 6 9 9 9 12 11 10 11 10 13 14 12 6 nan
nan 14 11 8 6 10 8 9 12 11 7 5 5 7 8 8 6 6 7 9 7 8 8 6 7 8 8 10 12 9 8 8 9 8 8 12 11 10 10 10 11 12 10 11 15 13 11 10 nan
nan 7 8 10 9 10 14 6 8 7 10 9 6 7 8 9 8 7 6 7 8 8 8 7 7 8 9 10 9 8 9 9 9 10 13 10 10 10 9 9 11 11 9 10 14 15 12 10 nan
nan 6 5 6 10 8 12 7 8 12 10 10 8 6 8 9 7 6 8 8 8 6 8 9 7 7 8 10 10 10 9 11 10 11 9 9 11 9 7 10 14 13 9 10 10 16 17 11 nan
nan 4 8 11 7 9 11 10 8 12 9 7 8 7 6 7 8 9 8 8 8 6 5 7 8 8 7 9 12 11 12 13 10 9 10 11 8 7 8 12 11 13 13 12 13 15 14 13 nan
nan 10 5 6 8 11 7 9 12 9 7 7 4 5 6 7 9 8 8 8 8 7 7 7 8 9 8 9 10 10 9 9 10 10 12 10 9 8 9 10 11 12 12 15 16 14 13 14 nan
nan 8 5 9 12 7 8 8 15 11 6 5 5 6 5 5 7 7 7 8 8 8 9 7 7 7 8 10 10 9 9 10 11 9 9 11 11 10 10 9 11 11 11 13 16 16 16 14 nan
nan 4 9 11 9 9 10 9 16 15 10 9 8 7 6 6 7 7 7 8 10 8 7 8 8 7 9 9 9 9 9 11 12 10 9 10 11 11 11 11 9 9 11 13 15 13 15 20 nan
nan nan nan nan nan nan nan nan nan nan nan nan nan nan nan nan nan nan nan nan nan nan nan nan nan nan nan nan nan nan nan nan nan nan nan nan nan nan nan nan nan nan nan nan nan nan nan nan nan
CAPE
0 0 0 0 0 0 0 0 0 0 0 0 0 0 5 41 482 820 434 1356 1327 1454 1553 1668 1631 1641 1657 1650 1782 1802 2003 2105 1905 1779 1754 1877 1987 2024 2030 2014 1998 1952 1880 1752 1705 1537 1487 1480 1622
0 0 0 0 0 0 0 0 0 0 0 0 0 0 0 13 93 591 730 1316 1393 1513 1557 1649 1722 1630 1675 1588 1741 1965 2085 2107 2063 1934 1881 1956 2019 2048 2071 2026 1977 2107 2219 1866 1727 1567 1528 1630 1551
0 0 0 0 0 0 0 0 0 0 0 0 0 0 0 0 0 450 1399 1401 1403 1431 1561 1696 1851 1830 1762 1698 1718 1995 1927 1817 1962 2117 2230 2202 2173 2248 2260 2069 1982 2295 2418 1974 1752 1624 1580 1440 1238
0 0 0 0 0 0 0 0 0 0 0 0 0 0 0 0 2 1453 1589 1372 1386 1418 1407 1680 1933 1995 1993 1873 1843 1951 1912 1683 1748 2025 2316 2356 2352 2344 2135 1925 2051 2425 2503 2292 1904 1706 1452 1114 1047
0 0 0 0 0 0 0 0 0 0 0 0 0 0 0 0 46 1451 1572 1518 1255 1036 1048 1261 1565 1871 2120 2169 2089 1969 1896 1705 1667 1908 2145 2374 2404 2214 1878 1720 1994 2308 2446 2348 1975 1564 1120 922 893
0 0 0 0 0 0 0 0 0 0 0 0 0 0 0 0 0 0 0 0 0 0 0 0 477 1207 1570 1845 2119 2000 1924 1752 1643 1760 1961 2181 2242 1986 1771 1680 1843 2109 2212 1944 1524 1146 942 779 745
0 0 0 0 0 0 0 0 0 0 0 0 0 0 0 0 0 0 0 0 0 0 0 0 0 0 11 1176 1352 1452 1719 1740 1637 1653 1800 1980 1988 1792 1715 1691 1733 1970 1982 1604 1166 884 748 675 598
0 0 0 0 0 0 0 0 0 0 0 0 0 0 0 0 0 0 0 0 0 0 0 0 0 0 0 7 1184 1361 1468 913 1668 1595 1675 1792 1851 1632 1575 1620 1640 1825 1759 1360 998 695 573 536 461
0 0 0 0 0 0 0 0 0 0 0 0 0 0 0 0 0 0 0 0 0 0 0 0 0 0 0 0 0 892 1462 1383 970 1429 1578 1427 1279 1304 1314 1381 1439 1659 1596 1222 857 588 439 416 300
0 0 0 0 0 0 0 0 0 0 0 0 0 0 0 0 0 0 0 0 0 0 0 0 0 0 0 0 0 0 0 757 1231 1325 1151 766 1112 1029 1157 1237 1320 1451 1489 1176 755 563 376 273 21
0 0 0 0 0 0 0 0 0 0 0 0 0 0 0 0 0 0 0 0 0 0 0 0 0 0 0 0 0 0 0 0 13 917 1169 1290 1187 1099 1021 1106 1157 1246 1368 858 607 387 167 52 0
0 0 0 0 0 0 0 0 0 0 0 0 0 0 0 0 0 0 0 0 0 0 0 0 0 0 0 0 0 0 0 0 0 0 0 907 1122 872 900 1114 848 1005 1059 846 302 94 36 0 0
0 0 0 0 0 0 0 0 0 0 0 0 0 0 0 0 0 0 0 0 0 0 0 0 0 0 0 0 0 0 0 0 0 0 0 0 922 1162 988 937 792 989 843 761 394 81 8 0 0
0 0 0 0 0 0 0 0 0 0 0 0 0 0 0 0 0 0 0 0 0 0 0 0 0 0 0 0 0 0 0 0 0 0 0 0 0 371 985 876 769 868 873 688 405 135 30 4 0
0 0 0 0 0 0 0 0 0 0 0 0 0 0 0 0 0 0 0 0 0 0 0 0 0 0 0 0 0 0 0 0 0 0 0 0 0 0 26 750 678 752 739 593 357 111 0 0 0
0 0 0 0 0 0 0 0 0 0 0 0 0 0 0 0 0 0 0 0 0 0 0 0 0 0 0 0 0 0 0 0 0 0 0 0 0 0 0 7 648 617 626 474 415 240 60 28 14
0 0 0 0 0 0 0 0 0 0 0 0 0 0 0 0 0 0 0 0 0 0 0 0 0 0 0 0 0 0 0 0 0 0 0 0 1 0 0 1 2 518 506 640 485 389 169 90 56
0 0 0 0 0 0 0 0 0 0 0 0 0 0 0 0 0 0 0 0 0 0 0 0 0 0 0 0 0 0 0 0 0 0 0 1 3 9 3 5 13 278 846 766 430 485 208 149 119
0 0 0 0 0 0 0 0 0 0 0 0 0 0 0 0 0 0 0 0 0 0 0 0 0 0 0 0 0 0 1 1 1 3 4 0 0 3 6 4 2 1 411 644 561 133 192 150 120
0 0 0 0 0 0 0 0 0 0 0 0 0 0 0 0 0 0 0 0 0 0 0 0 0 0 0 0 1 2 3 3 2 2 2 4 1 7 5 2 2 5 1 235 568 87 458 203 90
0 0 0 0 0 0 0 0 0 0 0 0 0 0 0 0 0 0 0 0 0 0 0 0 0 1 1 1 1 1 3 1 7 6 1 4 6 5 1 0 3 2 5 4 265 545 527 393 125
0 0 0 0 0 0 0 0 0 0 0 0 0 0 0 0 0 0 0 0 0 0 0 0 1 2 2 4 4 1 1 2 9 8 11 3 4 14 10 3 4 8 6 15 164 269 359 390 98
0 0 0 0 0 0 0 0 0 0 0 0 0 0 0 0 0 0 0 0 0 0 0 0 1 1 1 2 3 4 5 7 0 11 13 14 12 9 7 9 1 9 15 10 102 230 70 27 41
0 0 0 0 0 0 0 0 0 0 0 0 0 0 0 0 0 0 0 0 0 0 0 1 0 1 1 5 2 3 2 5 6 2 14 14 13 14 12 13 12 14 13 5 20 238 271 103 72
0 0 0 0 0 0 0 0 0 0 0 0 0 0 0 0 0 0 0 0 0 0 0 1 2 1 1 0 2 4 2 7 16 16 13 15 13 14 11 13 15 15 20 14 12 10 215 114 20
0 0 0 0 0 0 0 0 0 0 0 0 0 0 0 0 0 0 0 0 0 0 1 0 2 2 2 0 3 2 1 11 14 15 16 18 14 14 16 18 13 16 12 2 5 13 40 179 63
0 0 0 0 0 0 0 0 0 0 0 0 0 0 0 0 0 0 0 0 0 0 1 0 3 4 3 2 3 2 4 2 11 11 16 16 17 24 14 12 10 12 16 6 6 10 10 129 85
0 0 0 0 5 0 0 0 0 1 0 0 0 0 0 0 0 0 0 0 0 0 0 0 2 5 3 4 4 5 6 5 5 6 1 10 17 20 14 10 7 7 9 11 11 12 15 29 155
0 0 0 0 0 0 0 0 0 0 0 0 0 0 0 0 0 0 0 0 0 0 0 0 0 6 3 4 3 4 1 1 7 10 2 6 15 16 14 13 10 6 7 8 9 10 6 9 84
0 0 0 2 0 0 0 0 0 0 0 0 0 0 0 0 0 0 0 0 0 0 0 0 0 3 6 9 7 7 5 6 7 8 12 13 10 12 15 10 9 8 7 9 8 9 7 7 1